{"data":{"norad_id":53257,"intl_designator":"2022-086R","name":"STARLINK-4144","alt_names":[],"object_type":"PAYLOAD","status":"ACTIVE","operator":null,"country":"US","launch_date":"2022-07-24","launch_site_code":"AFETR","launch_vehicle":null,"mission":null,"orbit_class":"UNKNOWN","rcs_meters":null,"size_class":null,"mass_kg":null,"dimensions":null,"purposes":["comms"],"wikipedia_slug":null,"has_3d_model":false,"image_url":null,"decayed_at":null,"tle_current":{"epoch":"2026-05-24T22:08:24.668736Z","epoch_age_seconds":75113,"freshness":"FRESH","line1":"1 53257U 22086R   26144.92250774 -.00000519  00000+0 -14546-4 0  9993","line2":"2 53257  53.2136 211.8993 0001327  85.0783 275.0360 15.08838191212575","mean_motion":15.08838191,"eccentricity":0.0001327,"inclination_deg":53.2136,"raan_deg":211.8993,"arg_perigee_deg":85.0783,"mean_anomaly_deg":275.036,"bstar":-1.4546e-5,"rev_number":21257,"period_min":95.437669101259,"perigee_km":538.83091489756,"apogee_km":540.66692182029,"semimajor_km":6917.8859183589,"source":"CELESTRAK","updated_at":"2026-05-25T13:38:17.363170Z"}}}